Stündliche Wetter Holovach

Heute, 20 Juni, Sonntag

Zeit Temperatur Niederschläge Wind Luftdruck Luftfeuchtigkeit
00:00 +21°C° 0 mm 6 m/S 755 mmHg 78%
01:00 +21°C° 0 mm 6 m/S 755 mmHg 76%
02:00 +21°C° 0 mm 6 m/S 755 mmHg 74%
03:00 +20°C° 0 mm 6 m/S 755 mmHg 74%
04:00 +20°C° 0 mm 6 m/S 755 mmHg 75%
05:00 +19°C° 0 mm 6 m/S 755 mmHg 75%
06:00 +20°C° 0 mm 6 m/S 755 mmHg 72%
07:00 +22°C° 0 mm 6 m/S 755 mmHg 70%
08:00 +23°C° 0 mm 7 m/S 754 mmHg 67%
09:00 +24°C° 0 mm 7 m/S 754 mmHg 65%
10:00 +24°C° 0 mm 7 m/S 754 mmHg 63%
11:00 +26°C° 0 mm 7 m/S 754 mmHg 61%
12:00 +27°C° 0 mm 7 m/S 754 mmHg 62%
13:00 +27°C° 0 mm 7 m/S 754 mmHg 62%
14:00 +27°C° 0 mm 6 m/S 754 mmHg 63%
15:00 +27°C° 0 mm 6 m/S 754 mmHg 66%
16:00 +26°C° 0 mm 6 m/S 754 mmHg 68%
17:00 +26°C° 0 mm 6 m/S 753 mmHg 71%
18:00 +23°C° 0 mm 5 m/S 753 mmHg 75%
19:00 +22°C° 0 mm 5 m/S 753 mmHg 79%
20:00 +21°C° 0 mm 4 m/S 753 mmHg 83%
21:00 +21°C° 0 mm 4 m/S 753 mmHg 85%
22:00 +20°C° 0 mm 4 m/S 753 mmHg 86%
23:00 +19°C° 0 mm 4 m/S 753 mmHg 88%

Morgen, 21 Juni, Montag

Zeit Temperatur Niederschläge Wind Luftdruck Luftfeuchtigkeit
00:00 +19°C° 0 mm 4 m/S 753 mmHg 88%
01:00 +19°C° 0 mm 3 m/S 752 mmHg 87%
02:00 +19°C° 0 mm 3 m/S 752 mmHg 87%
03:00 +19°C° 0 mm 3 m/S 752 mmHg 87%
04:00 +19°C° 0 mm 3 m/S 752 mmHg 86%
05:00 +19°C° 0 mm 3 m/S 752 mmHg 86%
06:00 +21°C° 0 mm 4 m/S 752 mmHg 80%
07:00 +23°C° 0 mm 4 m/S 752 mmHg 73%
08:00 +25°C° 0 mm 5 m/S 752 mmHg 66%
09:00 +27°C° 0 mm 6 m/S 752 mmHg 62%
10:00 +28°C° 0 mm 6 m/S 752 mmHg 58%
11:00 +29°C° 0 mm 7 m/S 752 mmHg 54%
12:00 +29°C° 0 mm 6 m/S 752 mmHg 54%
13:00 +30°C° 0 mm 6 m/S 752 mmHg 54%
14:00 +30°C° 0 mm 6 m/S 752 mmHg 54%
15:00 +30°C° 0 mm 5 m/S 752 mmHg 57%
16:00 +30°C° 0 mm 5 m/S 752 mmHg 59%
17:00 +29°C° 0 mm 4 m/S 752 mmHg 62%
18:00 +27°C° 0 mm 4 m/S 752 mmHg 67%
19:00 +26°C° 0 mm 4 m/S 752 mmHg 73%
20:00 +24°C° 0 mm 3 m/S 753 mmHg 79%
21:00 +22°C° 0 mm 3 m/S 752 mmHg 79%
22:00 +22°C° 0 mm 3 m/S 752 mmHg 79%
23:00 +21°C° 0 mm 3 m/S 752 mmHg 79%

übermorgen, 22 Juni, Dienstag

Zeit Temperatur Niederschläge Wind Luftdruck Luftfeuchtigkeit
00:00 +21°C° 0 mm 3 m/S 752 mmHg 79%
01:00 +20°C° 0 mm 3 m/S 752 mmHg 79%
02:00 +20°C° 0 mm 3 m/S 752 mmHg 78%
03:00 +20°C° 0 mm 3 m/S 752 mmHg 79%
04:00 +19°C° 0 mm 3 m/S 752 mmHg 79%
05:00 +19°C° 0 mm 3 m/S 752 mmHg 79%
06:00 +21°C° 0 mm 4 m/S 753 mmHg 74%
07:00 +23°C° 0 mm 5 m/S 753 mmHg 69%
08:00 +26°C° 0 mm 5 m/S 753 mmHg 64%
09:00 +26°C° 0 mm 5 m/S 753 mmHg 61%
10:00 +27°C° 0 mm 6 m/S 753 mmHg 59%
11:00 +28°C° 0 mm 6 m/S 753 mmHg 57%
12:00 +29°C° 0 mm 6 m/S 753 mmHg 55%
13:00 +30°C° 0 mm 6 m/S 753 mmHg 53%
14:00 +32°C° 0 mm 6 m/S 753 mmHg 52%
15:00 +32°C° 0 mm 5 m/S 753 mmHg 55%
16:00 +32°C° 0 mm 5 m/S 753 mmHg 58%
17:00 +30°C° 0 mm 4 m/S 753 mmHg 61%
18:00 +28°C° 0 mm 4 m/S 753 mmHg 67%
19:00 +27°C° 0 mm 4 m/S 753 mmHg 73%
20:00 +25°C° 0 mm 3 m/S 753 mmHg 79%
21:00 +25°C° 0 mm 3 m/S 753 mmHg 80%
22:00 +24°C° 0 mm 3 m/S 753 mmHg 82%
23:00 +22°C° 0 mm 3 m/S 752 mmHg 83%

23 Juni, Mittwoch

Zeit Temperatur Niederschläge Wind Luftdruck Luftfeuchtigkeit
00:00 +22°C° 0 mm 3 m/S 752 mmHg 83%
01:00 +22°C° 0 mm 3 m/S 752 mmHg 84%
02:00 +21°C° 0 mm 3 m/S 752 mmHg 84%
03:00 +21°C° 0 mm 3 m/S 752 mmHg 83%
04:00 +21°C° 0 mm 3 m/S 752 mmHg 82%
05:00 +21°C° 0 mm 3 m/S 752 mmHg 82%
06:00 +23°C° 0 mm 4 m/S 752 mmHg 77%
07:00 +25°C° 0 mm 4 m/S 752 mmHg 72%
08:00 +27°C° 0 mm 5 m/S 753 mmHg 67%
09:00 +27°C° 0 mm 5 m/S 753 mmHg 66%
10:00 +28°C° 0 mm 5 m/S 753 mmHg 65%
11:00 +29°C° 0 mm 5 m/S 753 mmHg 64%
12:00 +29°C° 0 mm 4 m/S 753 mmHg 63%
13:00 +30°C° 0 mm 4 m/S 753 mmHg 63%
14:00 +30°C° 0 mm 4 m/S 754 mmHg 62%
15:00 +30°C° 0 mm 4 m/S 754 mmHg 63%
16:00 +30°C° 0 mm 4 m/S 754 mmHg 63%
17:00 +30°C° 0 mm 4 m/S 754 mmHg 64%
18:00 +28°C° 0 mm 4 m/S 754 mmHg 69%
19:00 +27°C° 0 mm 4 m/S 754 mmHg 74%
20:00 +25°C° 0 mm 4 m/S 754 mmHg 78%
21:00 +25°C° 0 mm 3 m/S 754 mmHg 79%
22:00 +24°C° 0 mm 3 m/S 754 mmHg 80%
23:00 +24°C° 0 mm 3 m/S 754 mmHg 80%

24 Juni, Donnerstag

Zeit Temperatur Niederschläge Wind Luftdruck Luftfeuchtigkeit
00:00 +24°C° 0 mm 3 m/S 754 mmHg 80%
01:00 +22°C° 0 mm 3 m/S 754 mmHg 80%
02:00 +22°C° 0 mm 3 m/S 754 mmHg 80%
03:00 +22°C° 0 mm 3 m/S 754 mmHg 80%
04:00 +22°C° 0 mm 3 m/S 754 mmHg 79%
05:00 +21°C° 0 mm 3 m/S 754 mmHg 79%
06:00 +24°C° 0 mm 3 m/S 754 mmHg 73%
07:00 +26°C° 0 mm 3 m/S 754 mmHg 67%
08:00 +28°C° 0 mm 3 m/S 754 mmHg 61%
09:00 +29°C° 0 mm 4 m/S 754 mmHg 57%
10:00 +30°C° 0 mm 4 m/S 754 mmHg 53%
11:00 +33°C° 0 mm 5 m/S 754 mmHg 48%
12:00 +33°C° 0 mm 5 m/S 754 mmHg 49%
13:00 +33°C° 0 mm 5 m/S 754 mmHg 50%
14:00 +33°C° 0 mm 5 m/S 754 mmHg 50%
15:00 +32°C° 0 mm 4 m/S 754 mmHg 54%
16:00 +30°C° 0 mm 4 m/S 754 mmHg 58%
17:00 +30°C° 0 mm 3 m/S 754 mmHg 62%
18:00 +28°C° 0 mm 3 m/S 754 mmHg 66%
19:00 +27°C° 0 mm 3 m/S 754 mmHg 70%
20:00 +25°C° 0 mm 3 m/S 754 mmHg 74%
21:00 +24°C° 0 mm 2 m/S 754 mmHg 74%
22:00 +24°C° 0 mm 2 m/S 754 mmHg 75%
23:00 +23°C° 0 mm 2 m/S 754 mmHg 75%

25 Juni, Freitag

Zeit Temperatur Niederschläge Wind Luftdruck Luftfeuchtigkeit
00:00 +23°C° 0 mm 1 m/S 754 mmHg 75%
01:00 +22°C° 0 mm 1 m/S 754 mmHg 76%
02:00 +22°C° 0 mm 1 m/S 754 mmHg 76%
03:00 +22°C° 0 mm 1 m/S 754 mmHg 76%
04:00 +21°C° 0 mm 2 m/S 754 mmHg 75%
05:00 +23°C° 0 mm 2 m/S 754 mmHg 74%
06:00 +24°C° 0 mm 2 m/S 753 mmHg 73%
07:00 +25°C° 0 mm 2 m/S 753 mmHg 72%
08:00 +27°C° 0 mm 2 m/S 753 mmHg 71%
09:00 +28°C° 0 mm 3 m/S 753 mmHg 68%
10:00 +29°C° 0 mm 3 m/S 753 mmHg 64%
11:00 +30°C° 0 mm 4 m/S 753 mmHg 61%
12:00 +32°C° 0 mm 4 m/S 753 mmHg 56%
13:00 +33°C° 0 mm 4 m/S 752 mmHg 52%
14:00 +34°C° 0 mm 4 m/S 752 mmHg 48%
15:00 +34°C° 0 mm 3 m/S 752 mmHg 52%
16:00 +33°C° 0 mm 3 m/S 752 mmHg 55%
17:00 +32°C° 0 mm 2 m/S 752 mmHg 59%
18:00 +30°C° 0 mm 2 m/S 752 mmHg 63%
19:00 +28°C° 0 mm 2 m/S 752 mmHg 67%
20:00 +27°C° 0 mm 2 m/S 751 mmHg 71%
21:00 +26°C° 0 mm 2 m/S 751 mmHg 72%
22:00 +25°C° 0 mm 2 m/S 751 mmHg 73%
23:00 +24°C° 0 mm 2 m/S 751 mmHg 74%
Mehr zeigen

Wir brauchen deine Erlaubnis

Meteoprog und unser Service Anbieter werden persönliche Daten aufbewahren, so wie Cookies, Geräte Bezeichnung oder ähnliche Technologien von deinem Gerät und Prozess, so wie Persönliche Daten Inhalte und Werbungen, genauso wie social Media und den Verkehr zu analysieren.

  • Aufbewahrung und/oder Zugang zu deiner Geräte Informationen.

    Cookies, Geräte Bezeichnung oder andere Informationen, können aufbewahrt oder Zugang zu deinem Gerät erhalten, für den Grund, der oben angegeben wird.

  • Personalisierte Werbung und Inhalte, Messungen, Einblick in das Publikum und Produkt Entwicklung.

    Werbungen und Inhalte können personalisiert werden, basierend auf ein Profil. Mehr Daten können besser personalisierte Werbungen und Inhalte hinzufügen. Werbung und Inhalte können gezeigt und gemessen werden. Einblicke über das Publikum, welche die Werbung gesehen haben und den Inhalt, können abgeleitet werden. So wie Daten können genutzt werden, um es zu verbessern oder die Benutzer Erfahrung zu verbessern das System und die Software.

Wenn du “Ich stimme zu” klickst, erlaubst du uns, die Cookies zu benutzen die Geräte Bezeichnung, den Web oder ähnliche Technologien zu benutzen. Deine Settings, können in deinem Gerät bei deinem Browser geändert werden.

Für den bestimmten Zweck, berechtigten Interessen beruhen darauf, mehr als auf den Inhalt. Du kannst mehr darüber in unseren Privaten und Cookie Politik lesen.